Wind_Speed
9 8 8 8 8 8 7 7 6 6 5 4 4 5 6 7 8 9 10 12 14 15 15 15 16 16 16 15 14 13 13 14 16 15 14 15 17 19 21 21 21 19 17 14 11 10 8 6 5 4 5 6 5 2 1 3 4 5 3 4 7 8 8 8 7 10 13 16 19 19 19 18 17 17 16 17 16 15 14 13 13 13 14 17 16 17 21 22
9 9 8 8 8 8 8 8 8 7 6 6 5 5 6 7 8 8 9 10 12 14 15 16 16 16 17 16 15 14 13 13 15 16 16 17 18 18 19 20 21 20 18 16 12 10 7 6 5 4 5 6 5 2 1 2 5 5 1 5 9 9 9 8 6 10 14 20 22 19 18 16 15 17 18 17 16 15 14 14 14 14 16 19 17 18 20 20
8 8 9 9 9 9 9 9 9 8 7 7 6 6 6 7 7 9 10 10 11 12 14 15 16 16 17 17 16 15 14 13 15 17 18 19 18 17 16 17 20 20 19 17 13 12 9 8 7 5 5 6 6 3 1 1 4 5 3 7 9 8 8 7 1 9 19 23 22 20 18 15 15 18 18 15 14 13 11 13 14 14 17 19 18 19 20 20
6 7 7 8 9 9 10 10 10 10 9 8 7 7 7 7 7 8 10 11 11 11 12 14 16 17 17 17 17 16 15 13 15 17 19 21 18 17 14 14 18 19 20 19 16 15 13 12 10 8 6 6 6 5 2 1 2 5 5 7 9 7 7 6 7 18 25 24 21 20 18 17 18 19 18 14 13 14 13 12 11 12 15 17 19 19 19 19
7 6 6 7 8 8 9 9 10 10 10 10 9 7 7 7 7 8 9 10 11 12 11 12 14 16 17 17 17 17 14 11 15 18 20 21 19 17 15 13 16 19 20 20 19 18 16 14 12 10 8 7 7 5 3 2 4 5 6 8 9 6 7 8 16 23 25 23 20 18 17 18 19 19 16 13 12 13 15 14 11 11 12 15 18 18 18 18
8 7 6 7 7 7 8 8 9 10 10 10 10 9 8 7 7 8 9 10 11 12 12 11 12 14 16 17 16 17 15 12 15 18 19 20 19 19 16 15 17 19 20 21 20 19 17 15 13 11 9 8 9 6 4 3 3 5 5 7 7 5 8 11 19 22 20 19 18 16 16 17 18 18 15 13 12 13 15 14 12 13 13 15 17 16 16 17
9 8 7 7 7 7 7 8 8 9 10 10 10 10 9 7 7 7 8 9 10 11 12 12 11 13 15 16 16 17 17 17 16 16 19 20 19 19 18 17 18 18 20 21 21 20 18 17 14 12 9 9 10 8 6 5 4 6 4 5 5 5 9 11 18 21 18 16 15 14 14 15 16 16 15 13 14 16 16 13 11 13 16 16 17 16 15 16
10 9 8 8 8 8 8 8 8 8 9 9 9 9 9 8 7 7 7 8 9 10 11 12 12 12 13 15 16 16 17 19 17 15 18 19 20 20 20 20 18 18 20 21 21 20 18 17 16 13 9 9 10 8 7 6 3 4 3 3 5 6 10 12 17 19 15 12 13 13 12 13 14 14 13 13 15 18 16 13 11 15 17 17 17 16 16 17
10 9 8 8 8 8 8 8 8 9 9 9 9 9 10 9 8 6 6 7 8 9 10 11 12 12 12 13 15 15 17 19 18 17 17 19 20 21 21 20 19 18 19 21 22 20 19 18 17 14 10 10 10 9 9 7 1 2 3 4 6 7 9 12 16 17 12 10 12 12 12 12 12 12 12 14 17 18 16 12 13 16 18 18 17 16 16 17
9 9 8 8 8 8 8 8 8 9 9 9 9 9 10 9 8 6 5 5 6 8 9 9 11 12 12 13 13 14 17 19 18 18 17 18 21 22 22 21 20 18 18 20 22 21 20 20 19 16 13 12 11 11 10 6 4 6 5 5 6 7 8 11 14 16 14 10 10 11 12 11 11 10 11 15 18 17 15 12 14 17 18 18 18 17 16 17
9 8 8 8 8 8 8 8 8 9 9 9 9 9 9 9 8 6 5 4 5 7 8 9 10 11 12 12 13 15 17 18 18 19 17 18 21 23 23 22 21 20 18 19 20 21 22 21 20 17 11 11 13 12 11 7 6 6 6 5 6 6 7 8 11 12 13 11 9 11 11 11 11 10 11 16 18 17 15 13 15 18 18 18 18 18 18 17
8 8 7 7 8 8 8 8 8 8 9 9 9 9 9 8 8 7 5 4 5 6 7 9 10 11 12 12 15 16 17 17 18 19 17 17 20 23 24 23 23 22 19 17 19 21 22 21 20 17 12 11 11 10 10 10 7 5 6 5 5 6 6 7 8 9 11 12 10 11 10 10 11 11 13 16 17 17 15 14 16 18 18 18 19 19 19 18
8 8 8 7 8 8 7 7 8 8 8 8 8 8 8 7 7 7 6 6 6 6 6 8 9 10 11 12 14 16 16 17 18 17 17 16 18 22 24 24 24 23 22 20 20 22 22 21 20 20 18 13 9 9 11 10 7 6 6 5 5 6 6 6 8 9 11 11 10 10 9 10 12 12 15 16 16 17 16 16 17 18 19 19 19 20 19 19
9 9 8 8 7 7 7 7 8 8 8 8 9 9 8 7 6 5 5 6 7 6 6 7 9 10 11 12 13 15 16 16 17 16 16 16 16 19 22 23 24 24 23 22 22 23 23 22 22 23 20 15 12 12 11 9 7 8 8 7 7 7 8 8 8 8 10 10 10 11 9 10 13 14 16 17 16 17 16 17 18 19 20 20 20 20 20 19
9 9 9 8 8 7 7 8 8 8 8 8 8 8 8 7 6 5 5 6 7 8 6 6 8 9 9 10 12 14 15 16 16 16 15 15 16 18 20 21 23 24 24 22 21 22 23 22 22 21 16 15 17 11 7 10 9 10 10 8 9 7 7 8 7 8 9 9 12 13 11 11 14 15 16 17 17 18 16 16 19 20 21 21 20 20 20 19
9 9 9 8 7 7 8 8 8 8 8 8 8 8 7 7 6 6 6 5 7 8 5 4 6 6 6 9 11 13 15 16 16 16 15 15 15 17 19 20 21 22 22 21 19 19 21 22 22 22 16 14 16 10 9 12 11 12 11 8 9 7 6 7 7 8 8 8 12 15 12 11 14 16 17 18 18 18 18 17 19 21 21 22 22 21 20 20
9 9 9 8 7 7 7 7 8 7 8 8 8 8 8 7 7 7 6 4 6 7 5 3 3 4 5 7 9 13 16 17 16 16 15 15 15 16 17 19 20 21 21 20 18 17 19 22 24 26 21 15 13 12 12 14 13 13 11 8 8 7 6 6 5 8 8 6 11 15 13 11 14 17 17 17 18 19 18 19 20 22 22 22 22 21 21 21
9 8 8 7 7 7 7 7 7 7 8 8 8 8 8 7 7 7 5 4 5 6 5 1 2 3 3 7 10 13 16 16 15 15 14 14 14 14 15 17 18 20 20 19 17 17 18 21 22 21 20 16 14 16 16 13 13 14 13 10 8 8 6 5 5 5 6 6 10 15 14 11 13 17 17 16 18 18 18 19 21 23 23 23 23 22 22 21
9 8 7 7 7 7 7 7 7 8 8 8 8 8 7 7 7 7 5 3 4 5 3 2 4 4 5 7 10 13 14 13 13 12 12 13 13 12 12 14 16 17 17 16 16 17 17 18 20 18 20 21 18 19 15 6 6 11 12 10 8 8 6 4 4 4 4 5 9 15 14 11 13 16 17 17 17 18 18 20 23 23 24 24 24 23 23 21
9 7 7 7 7 7 7 7 7 7 8 7 7 6 6 6 7 7 5 5 5 4 2 3 4 5 6 5 7 11 12 11 11 10 10 11 12 11 11 12 14 15 15 14 14 17 17 17 21 20 20 22 19 17 12 5 5 7 8 8 8 8 6 4 4 3 4 5 7 11 11 10 11 13 16 18 18 19 20 21 23 24 25 26 25 24 23 21
8 7 7 7 7 7 7 7 7 7 8 6 6 7 6 6 7 5 5 6 6 5 4 5 4 3 4 2 5 11 12 11 10 10 9 9 9 8 9 11 12 13 14 13 13 17 18 17 21 21 18 19 17 14 12 8 7 7 8 9 9 9 7 5 4 6 6 6 5 7 8 8 10 12 15 19 19 19 20 21 22 24 25 26 26 25 24 22
8 6 6 6 7 6 7 7 7 8 7 6 7 8 8 7 6 4 6 8 7 7 7 6 6 5 4 4 4 10 13 12 10 9 9 8 7 6 8 11 11 12 14 15 13 15 18 17 18 19 17 17 17 18 18 12 7 8 8 9 10 9 7 5 5 6 7 6 5 7 8 9 10 11 13 17 19 19 20 20 21 22 24 25 26 26 25 24
7 6 6 6 7 6 6 7 7 7 6 6 7 8 8 7 6 5 7 10 8 8 9 8 8 7 6 6 6 10 11 9 9 9 9 7 7 7 8 10 11 11 15 17 15 15 16 16 17 18 18 16 16 19 18 14 11 9 9 10 10 8 8 6 5 6 7 6 5 7 8 9 12 13 13 15 18 19 20 21 21 21 23 24 25 26 25 25
7 6 5 5 6 6 5 5 6 6 6 7 8 8 8 7 7 7 11 11 8 7 9 8 8 8 8 8 8 11 8 7 8 9 9 7 5 6 7 9 11 11 13 15 15 15 12 12 15 17 19 17 14 15 14 13 13 11 10 10 7 6 7 8 7 6 6 6 7 8 8 11 14 14 14 16 17 20 22 22 22 22 22 24 25 26 26 26
6 5 5 5 5 5 4 4 5 6 6 7 8 8 8 7 7 10 13 11 8 8 8 7 8 8 9 9 7 8 6 5 7 7 8 8 5 4 6 9 10 9 13 15 15 15 12 13 15 15 18 18 13 13 14 13 13 12 13 11 5 4 6 10 9 5 5 7 8 9 9 10 13 15 16 17 18 19 23 24 24 24 24 25 25 27 27 26
5 4 4 5 5 4 4 4 4 6 7 7 8 7 8 9 9 13 11 8 8 6 5 5 5 4 5 7 6 6 6 6 6 6 7 8 6 4 4 7 8 8 11 13 13 14 11 12 14 14 17 18 14 14 14 14 13 11 13 12 7 4 5 9 10 6 6 6 5 10 10 5 7 13 17 19 19 19 22 24 25 26 25 25 25 27 28 28
4 3 3 4 4 3 3 4 4 6 7 7 7 6 8 8 9 11 7 5 7 5 3 2 2 3 4 7 6 4 3 7 5 5 7 7 5 4 4 5 6 8 10 11 11 13 11 8 11 13 16 17 17 16 15 16 14 8 8 10 8 7 7 8 7 6 8 6 4 9 11 7 7 11 15 18 19 19 21 22 24 27 26 25 26 26 27 28
3 2 3 3 3 2 3 4 4 6 7 6 5 6 6 5 6 6 1 3 6 4 2 1 1 3 4 6 6 3 4 6 4 5 8 7 5 4 4 4 5 7 10 13 10 9 11 11 10 12 15 17 18 17 14 16 15 7 5 10 8 6 7 8 7 7 8 9 9 9 10 8 7 10 13 15 19 19 19 21 24 28 29 26 26 27 27 27
2 1 2 3 3 2 3 4 5 7 6 5 5 5 5 6 6 4 0 3 6 3 2 1 1 1 3 5 5 5 7 4 2 6 6 6 6 4 3 4 4 6 9 13 10 4 9 15 13 12 13 13 16 15 13 16 16 8 6 10 9 6 7 7 9 9 7 9 12 10 12 10 6 11 14 15 17 18 17 18 21 26 30 29 28 28 29 28
1 1 2 4 3 3 4 4 6 7 6 6 6 5 5 5 3 0 1 5 5 3 3 3 1 0 2 5 5 6 6 3 3 7 6 6 6 4 3 3 5 5 6 11 10 4 7 14 15 14 12 9 10 12 13 16 15 10 8 10 10 9 8 7 9 10 7 11 13 11 13 11 6 10 12 11 11 11 12 14 16 21 26 28 29 30 30 29
1 0 3 4 4 4 5 6 6 7 7 7 8 7 6 4 2 3 4 6 5 4 5 4 3 2 3 5 7 7 4 2 3 6 6 6 6 4 4 4 6 7 6 9 11 7 7 10 12 13 13 10 8 9 11 14 15 12 10 11 12 11 10 9 10 9 8 9 10 9 10 11 9 5 6 6 7 8 8 8 9 14 19 23 27 32 33 31
1 1 4 5 5 5 6 7 7 8 8 6 8 8 6 3 3 5 5 4 3 4 4 3 4 4 6 5 6 6 3 2 3 5 6 6 7 6 4 3 6 8 8 10 11 9 10 11 10 10 12 13 11 10 10 12 15 15 13 15 14 12 10 10 10 9 10 10 8 6 8 11 11 6 4 5 6 7 7 6 6 7 11 17 23 30 35 33
1 2 4 6 7 7 7 7 7 7 7 6 8 7 2 1 5 6 5 4 3 4 4 4 4 6 6 5 5 5 3 2 4 5 6 6 6 6 3 0 3 7 7 8 9 9 11 13 14 12 11 14 16 14 12 12 14 17 17 18 16 12 9 9 9 9 11 14 11 5 6 10 11 8 8 9 9 8 7 7 8 7 8 12 19 27 33 33
1 3 5 7 8 8 7 7 8 7 7 8 7 3 1 3 5 5 5 6 4 4 4 5 6 6 5 4 6 6 3 3 5 6 6 7 6 6 4 2 3 5 4 5 8 8 9 10 15 17 14 14 18 17 12 10 13 18 18 18 18 16 12 9 10 10 11 13 13 9 6 7 9 10 11 12 11 10 8 7 9 11 10 10 15 24 30 33
2 3 5 7 8 8 7 8 8 8 9 9 4 1 3 5 4 3 4 5 4 3 3 4 5 4 4 5 5 6 5 4 7 7 5 6 5 4 3 1 2 3 4 6 6 7 8 7 8 13 13 13 17 18 14 9 10 15 17 18 20 20 17 13 12 13 14 12 11 12 10 7 7 11 12 9 7 7 6 5 6 9 13 12 14 22 30 34
3 3 6 8 9 7 7 8 8 8 9 7 3 3 6 5 4 3 3 4 3 2 1 2 3 3 4 5 4 4 4 6 9 7 6 7 5 4 3 1 2 5 3 5 5 6 9 8 7 9 12 13 13 16 18 14 10 12 18 21 19 16 16 15 13 12 13 11 9 13 14 11 8 11 13 11 8 6 5 5 6 7 12 14 13 19 28 34
3 5 7 9 9 7 7 8 7 7 6 4 2 6 6 4 4 4 4 4 3 1 1 2 2 2 2 4 4 4 5 6 7 6 6 6 5 6 5 3 2 5 4 2 2 3 7 8 9 7 10 15 15 13 17 18 13 10 14 19 16 13 14 15 12 10 10 9 9 14 16 15 12 10 10 10 9 9 7 6 6 8 11 13 12 15 24 32
5 7 9 10 9 7 6 6 6 5 5 4 4 7 6 4 5 5 5 5 3 2 2 2 1 2 1 2 4 5 5 5 4 4 5 4 3 5 5 4 5 3 4 5 2 2 6 7 8 7 7 13 16 13 14 17 18 13 9 12 16 13 14 15 12 10 10 8 9 13 14 17 15 10 7 7 7 8 9 8 7 9 11 11 10 13 21 30
6 7 8 9 9 7 6 6 5 5 4 4 4 6 6 5 5 5 6 5 4 2 2 1 2 3 2 2 4 4 3 3 4 4 3 2 2 4 4 4 4 4 4 4 0 2 5 6 7 10 7 9 14 15 15 16 20 18 10 10 15 15 14 17 17 14 11 8 9 10 12 14 14 12 13 12 10 9 9 8 9 10 11 10 9 10 16 26
8 7 6 9 9 7 7 6 5 5 4 4 5 5 6 5 4 5 5 5 5 3 2 2 2 2 3 3 3 2 2 3 3 3 3 3 4 3 3 3 2 1 2 3 2 1 4 7 6 9 9 10 14 17 16 13 18 22 18 14 16 15 12 14 18 21 16 10 8 9 9 10 12 15 19 18 14 12 10 9 9 10 9 9 8 8 11 20
9 6 7 9 8 8 6 5 5 5 4 4 5 5 6 5 4 4 5 5 5 4 4 3 2 2 2 2 2 1 2 2 3 2 2 4 5 2 3 4 2 2 2 1 1 3 3 6 6 6 11 11 10 13 15 13 13 18 20 19 17 17 15 11 12 20 20 14 11 10 8 8 12 17 20 18 14 12 11 10 9 9 9 9 8 8 9 15
7 4 8 8 7 8 6 4 4 5 4 4 5 5 5 5 4 3 3 3 3 3 3 3 3 3 2 2 2 2 2 2 3 3 1 4 5 3 3 5 4 3 2 2 3 5 3 5 7 7 8 6 3 9 16 16 14 14 15 15 15 16 18 16 12 14 19 18 14 12 8 5 10 15 17 16 14 12 10 9 9 10 11 10 9 9 8 10
6 6 9 8 7 8 6 4 4 4 4 5 5 5 4 4 3 2 2 1 1 2 2 2 2 2 2 3 2 2 2 2 2 3 3 3 3 3 3 3 3 2 1 2 4 5 4 4 7 7 5 3 2 5 11 15 16 15 12 10 13 15 15 15 12 8 14 20 17 12 8 7 9 11 13 13 12 12 11 9 10 11 12 11 10 9 8 9
9 9 9 8 8 8 5 3 4 4 5 6 4 3 3 2 2 2 2 0 1 1 1 1 2 2 2 2 2 1 2 2 1 3 4 3 2 4 3 2 1 1 1 2 3 4 4 4 6 8 7 7 7 7 10 11 11 11 8 8 15 17 13 14 13 8 10 16 18 16 10 8 10 10 12 13 12 13 13 11 12 13 13 12 11 9 9 10
11 9 9 9 8 7 6 6 5 4 5 5 4 3 2 1 1 1 0 1 3 3 2 1 0 1 2 2 2 1 1 2 2 4 4 3 2 3 2 1 0 1 2 3 3 4 5 4 6 8 8 7 6 6 8 8 7 6 3 4 10 12 12 16 16 14 14 12 14 18 11 4 7 11 13 14 14 15 16 14 14 15 14 13 12 10 10 11
10 8 8 8 8 7 7 9 7 5 5 5 4 2 1 0 1 1 0 1 3 3 2 2 2 1 1 2 3 2 2 1 2 3 4 3 2 1 1 1 1 2 2 2 2 2 4 6 7 8 9 8 5 3 4 3 4 4 2 0 3 5 11 16 15 15 15 12 14 18 14 5 5 9 12 14 15 17 18 16 14 16 16 14 14 13 13 13
11 10 9 9 7 6 6 8 6 5 5 5 4 2 1 1 1 2 1 1 3 4 2 2 3 2 2 2 2 2 2 3 2 3 3 3 1 2 2 2 3 4 3 3 2 2 4 7 8 8 8 10 8 6 4 3 3 5 5 4 3 3 6 13 15 13 11 12 13 13 15 13 10 9 11 14 16 17 18 17 14 15 17 16 15 14 13 13
12 12 12 11 8 6 7 9 7 6 5 4 4 3 2 2 1 1 2 2 2 4 3 2 3 3 4 3 2 1 2 2 2 3 2 1 1 2 2 2 4 5 4 5 4 4 5 7 8 7 8 11 12 10 7 2 1 4 6 6 6 6 3 5 11 11 9 10 8 5 10 13 11 11 13 13 14 16 18 17 14 14 17 16 15 14 14 15
14 13 13 13 10 7 7 9 8 6 5 4 3 3 3 2 2 2 3 2 2 4 5 2 2 4 5 4 3 2 2 2 2 2 2 2 1 2 2 2 3 5 5 4 5 5 5 6 7 7 9 12 13 13 12 9 7 5 5 6 6 7 6 3 5 11 14 13 10 7 7 7 8 12 15 12 12 13 15 16 15 15 17 17 16 16 16 17
15 14 13 13 12 9 7 8 7 6 5 4 3 4 3 3 2 3 3 1 1 3 4 4 3 4 4 4 3 3 4 4 2 3 4 2 2 2 2 2 3 5 5 4 4 5 5 6 8 8 10 13 12 11 13 12 10 10 8 7 6 6 7 6 4 9 13 11 10 11 8 6 9 12 14 13 13 13 12 15 15 15 16 17 17 17 18 17
16 15 14 12 11 11 10 9 8 6 6 5 4 4 3 3 2 1 2 0 3 4 4 4 4 4 3 3 3 4 6 6 5 6 5 4 4 3 2 3 4 4 5 5 4 4 4 5 7 8 11 13 12 10 11 10 9 12 11 8 5 4 7 8 7 6 9 10 11 11 8 8 11 14 14 14 14 13 13 14 14 14 15 18 18 17 17 17
16 16 15 13 11 12 12 10 9 8 7 6 5 4 4 4 2 0 1 2 2 5 5 5 5 4 2 3 4 5 7 6 6 7 6 5 5 3 2 3 3 3 4 5 5 4 5 6 6 9 11 11 10 8 8 7 7 10 11 7 3 3 6 7 8 7 5 8 8 8 9 10 13 16 17 16 15 15 14 13 14 15 15 15 16 16 16 15
Wind_Direction
348 347 347 345 343 341 338 335 329 323 317 301 283 267 260 258 255 251 245 239 235 234 230 227 225 227 225 221 219 217 216 214 213 210 207 212 214 214 214 211 213 212 209 208 199 196 196 181 177 167 161 165 152 131 82 52 49 59 21 344 345 338 323 302 265 219 201 177 167 160 152 150 154 158 158 156 153 157 163 161 160 162 160 158 162 167 165 159
346 347 348 348 347 346 342 339 334 327 318 308 298 284 271 263 258 256 253 247 240 235 233 229 226 225 226 224 219 217 216 213 212 209 209 216 216 217 215 210 212 212 210 208 199 195 193 177 183 179 161 166 164 169 117 62 48 62 15 352 360 345 332 316 271 217 186 162 158 154 148 150 157 155 151 152 151 152 159 159 159 164 160 155 160 169 168 163
346 347 347 346 347 349 348 345 342 337 328 317 305 293 284 273 263 259 256 253 249 241 235 231 228 226 224 225 222 218 216 214 214 209 210 216 217 218 215 210 212 210 209 207 196 189 186 177 184 187 172 171 171 179 159 75 39 54 32 2 1 352 346 339 281 172 159 151 152 149 146 149 154 150 144 141 142 145 154 157 157 162 161 155 161 171 170 166
347 348 346 344 344 346 347 345 342 340 337 331 320 303 290 281 270 261 258 256 253 248 240 232 229 227 224 223 222 220 216 218 220 210 210 214 214 216 210 208 211 208 207 205 196 191 189 183 187 188 180 177 169 168 171 110 60 55 36 10 359 2 16 32 112 139 143 145 149 149 147 149 152 152 144 132 134 144 147 150 151 157 164 157 160 172 171 166
349 349 347 344 342 343 345 344 340 338 337 337 333 321 303 288 277 268 262 258 255 252 247 237 230 228 226 222 220 220 213 221 226 212 212 213 208 212 205 201 209 206 205 205 200 196 190 185 189 191 186 174 164 169 181 138 92 64 38 20 6 23 60 87 125 134 136 141 149 150 148 151 154 156 153 141 139 149 148 151 150 152 167 162 159 170 170 164
348 349 349 346 344 344 346 345 341 338 337 337 336 333 327 306 285 275 266 261 258 255 252 246 237 230 227 223 220 219 209 215 224 212 214 212 205 208 201 200 207 203 202 204 203 199 192 186 187 192 187 170 168 173 164 148 104 71 41 21 14 56 87 113 134 130 129 138 147 149 147 151 154 158 161 151 146 153 154 154 151 151 166 165 159 166 166 162
345 347 350 347 345 343 346 347 342 339 338 337 338 339 338 327 302 282 271 265 260 258 256 251 245 235 229 223 219 219 214 218 222 214 215 211 204 205 200 202 205 202 203 203 204 202 193 186 189 191 183 175 179 174 153 146 107 82 52 26 38 93 101 122 140 131 126 136 145 146 144 151 156 161 160 152 154 158 157 154 150 154 163 165 161 162 162 159
343 343 346 346 343 341 345 346 342 339 337 338 340 343 345 341 326 300 280 269 261 258 256 251 248 241 232 224 219 219 221 222 222 218 216 210 204 202 202 204 203 203 204 203 205 204 195 189 191 186 178 187 180 167 160 144 93 73 66 50 70 102 113 127 148 145 132 131 145 150 148 154 159 160 156 153 160 161 157 151 149 156 160 162 161 161 161 159
342 339 342 342 338 338 341 343 340 337 337 339 342 346 350 351 346 327 297 277 266 258 255 251 247 242 236 226 217 220 224 221 221 220 216 210 204 201 202 203 202 204 204 204 204 202 197 192 192 183 181 194 175 161 156 129 165 215 125 108 88 101 123 135 156 161 154 140 145 157 157 156 155 153 153 157 162 163 158 149 149 156 158 160 161 161 161 161
342 337 338 336 333 334 337 340 338 336 337 340 343 346 351 355 355 343 317 290 270 257 251 246 244 239 235 226 214 220 223 218 220 220 217 212 205 201 202 201 201 203 206 207 204 200 197 195 194 187 183 192 174 163 159 135 210 207 139 132 117 114 136 148 162 167 172 164 151 162 164 159 156 151 157 162 164 164 158 150 152 157 160 161 162 161 162 163
343 336 336 332 329 331 335 337 335 336 338 338 340 342 349 354 352 347 331 298 271 256 246 240 239 235 230 222 212 218 218 215 219 218 217 213 205 202 201 200 199 199 205 208 206 201 197 197 194 183 180 193 177 167 174 171 184 175 143 148 142 134 147 161 171 175 184 186 170 167 166 164 160 156 165 166 166 167 161 153 155 160 162 164 164 162 165 168
342 336 336 330 328 331 332 334 335 336 335 335 334 336 346 351 351 350 342 319 289 266 249 238 235 232 226 218 214 218 216 215 218 217 216 214 207 203 200 200 199 196 199 204 207 203 199 197 187 177 181 188 178 174 187 183 165 157 149 152 160 152 155 170 179 189 198 200 190 169 164 171 168 163 168 169 168 169 164 157 160 164 164 166 168 166 169 173
343 338 337 332 330 331 331 333 334 333 332 332 331 333 342 347 351 353 349 336 316 292 267 244 235 232 222 215 215 217 216 215 216 216 216 214 209 205 203 201 199 197 197 197 201 201 200 196 184 182 182 173 175 185 187 186 168 167 169 163 171 164 164 174 173 189 201 207 205 177 162 174 176 171 170 171 172 170 166 162 164 169 168 168 172 171 172 176
343 339 340 337 335 334 333 334 333 330 331 331 331 333 337 339 343 348 347 338 329 318 291 254 236 230 219 213 213 214 215 214 214 215 214 212 208 205 206 204 201 199 199 200 199 197 196 192 187 187 183 175 183 181 178 189 177 176 188 184 190 185 176 177 171 182 194 202 204 186 175 179 180 176 172 173 174 172 170 166 168 173 172 172 176 176 175 176
343 340 342 341 339 336 335 335 334 332 333 333 333 334 331 331 328 327 333 332 333 329 304 260 238 231 217 210 210 211 211 210 211 212 212 211 207 203 205 206 205 202 202 205 203 199 194 188 187 187 189 190 184 174 183 195 187 191 196 190 203 206 175 176 183 186 190 194 192 188 187 191 188 181 176 176 174 174 175 172 173 177 177 177 179 180 177 178
343 341 342 343 340 337 337 337 336 334 335 333 330 328 325 326 320 313 318 325 338 338 318 268 244 222 201 205 208 207 206 206 207 208 210 209 205 204 203 204 206 205 206 208 207 204 194 186 187 186 190 194 184 183 196 195 198 206 206 197 201 202 168 171 194 203 198 192 191 187 187 197 194 184 180 180 178 177 180 179 179 180 181 182 181 183 182 181
342 342 342 342 339 337 337 336 335 335 334 331 329 327 326 329 325 319 323 332 342 344 337 292 243 199 188 194 197 202 203 203 204 204 207 207 204 204 204 203 204 203 206 209 209 205 194 188 190 189 186 187 191 197 200 200 204 206 210 209 196 191 177 167 189 212 206 195 196 190 185 195 195 186 183 184 184 184 183 183 184 184 185 186 184 185 186 186
340 342 341 340 337 336 336 334 335 336 335 334 335 334 331 336 337 335 345 352 349 2 6 11 124 132 180 187 189 200 202 200 203 204 207 210 207 204 203 204 203 204 205 207 209 203 193 189 190 191 192 192 195 198 202 206 207 205 205 204 196 190 186 170 171 191 190 185 189 187 187 192 190 188 188 188 189 189 188 185 186 187 188 189 188 188 188 188
337 342 341 337 335 334 335 336 340 341 342 343 347 349 345 351 2 3 18 27 13 26 33 96 129 146 184 194 197 199 198 198 200 204 211 215 214 210 206 203 202 205 204 203 208 202 190 187 188 192 202 201 195 199 209 217 205 205 202 200 199 190 183 171 170 165 152 165 180 183 188 190 191 195 195 193 191 191 192 187 185 188 191 192 191 190 189 188
335 341 342 335 334 333 335 343 349 350 355 1 11 20 15 25 32 24 39 46 21 28 82 126 139 165 178 197 204 192 189 188 188 197 209 216 217 214 209 205 203 203 200 197 205 201 188 189 194 196 201 199 196 205 217 219 194 199 201 202 202 196 189 167 180 190 146 150 184 191 194 193 194 204 203 197 194 194 194 190 187 189 193 194 194 192 189 188
335 343 343 335 333 334 340 350 360 4 10 27 43 52 60 70 66 44 51 49 33 56 96 106 104 127 148 165 194 184 177 175 180 186 198 208 205 209 213 205 199 198 192 184 194 198 192 197 203 201 200 197 200 210 208 199 199 204 207 208 204 198 189 166 186 205 166 154 194 202 204 207 199 204 208 203 199 197 196 195 192 192 195 196 196 195 190 189
338 343 344 337 334 337 348 354 6 15 26 51 60 70 77 79 78 67 71 70 67 85 90 85 77 64 61 67 152 177 171 172 185 190 198 204 180 186 218 200 186 194 193 184 187 193 197 205 205 199 197 196 202 206 200 196 204 209 211 217 212 192 180 177 173 186 171 159 201 208 204 219 215 207 211 210 206 203 201 199 197 197 198 199 198 196 192 191
339 342 347 341 336 344 355 358 9 20 41 66 70 80 85 84 82 78 92 90 85 94 86 77 72 62 62 72 123 156 160 174 196 206 206 200 180 190 208 193 183 197 200 193 190 190 199 209 204 199 198 197 202 203 200 202 207 211 216 219 209 179 179 189 166 175 182 171 205 213 201 218 223 214 212 214 211 206 202 201 200 201 201 202 201 199 195 194
339 341 351 347 343 351 1 6 14 29 57 74 78 87 89 86 81 92 105 100 97 103 89 78 75 77 89 88 110 135 151 184 200 221 214 187 185 196 189 186 188 197 199 195 196 196 200 202 193 198 203 197 198 203 201 205 208 211 217 218 200 161 172 179 163 169 190 207 218 205 200 216 223 222 215 212 212 209 204 201 201 202 202 202 202 202 199 196
337 340 358 358 354 356 7 16 23 49 73 79 83 90 92 84 86 106 108 102 107 99 77 77 80 89 99 85 86 116 132 168 182 207 205 174 168 187 192 193 188 197 200 192 196 202 208 209 197 199 203 196 196 205 203 205 211 213 212 214 198 152 168 186 187 176 202 233 221 199 205 212 216 225 223 215 214 213 209 207 205 203 201 200 200 202 202 200
335 341 5 10 5 0 22 35 39 69 86 84 84 93 98 93 97 107 107 115 122 90 53 72 73 83 107 98 89 94 116 146 156 162 171 166 158 157 194 198 184 193 196 187 197 206 211 220 210 201 198 196 199 206 205 206 214 215 208 211 209 184 186 200 205 207 223 239 218 208 218 214 209 221 223 220 217 214 213 211 207 204 202 200 200 201 203 202
330 345 15 19 13 10 43 56 58 81 94 87 86 99 104 103 106 107 107 122 114 69 46 74 49 80 106 122 113 65 115 149 141 146 165 168 150 131 163 193 194 195 184 178 196 205 197 192 192 191 194 199 204 207 208 209 212 214 197 201 209 208 209 209 208 221 237 255 245 220 224 243 243 224 220 220 218 215 215 215 209 205 203 202 201 201 203 204
324 351 30 34 29 33 61 69 77 97 103 92 95 103 103 109 111 110 123 92 81 45 33 347 300 106 109 135 132 75 110 132 140 167 171 168 158 139 161 196 206 198 188 183 191 202 199 190 182 184 191 201 207 209 212 209 211 229 212 200 204 213 220 216 217 233 244 251 245 218 212 229 225 212 211 208 211 217 218 217 213 209 207 207 204 201 203 205
317 355 52 56 53 69 74 81 99 110 111 97 98 105 105 109 102 106 233 60 67 34 10 39 54 118 136 145 136 115 120 113 148 164 163 172 167 150 180 206 184 184 194 197 204 210 196 195 190 184 189 202 206 207 212 208 211 237 233 210 213 224 226 217 220 234 239 247 248 217 205 222 196 183 192 192 204 218 219 218 216 213 213 213 210 204 202 205
298 1 81 83 83 92 92 103 113 115 115 101 102 111 114 108 86 120 96 67 69 42 20 54 92 227 164 161 164 139 123 88 119 152 161 170 165 148 180 185 165 178 195 203 214 208 178 192 196 194 196 199 197 202 212 211 215 236 231 216 223 226 227 227 227 236 237 240 245 218 204 231 220 173 182 199 212 212 212 217 219 220 220 217 213 208 203 203
258 123 100 102 104 107 105 112 120 122 116 105 107 108 105 99 357 341 73 76 71 47 33 61 93 111 125 159 174 157 141 92 124 159 166 167 172 171 184 179 173 184 190 205 215 206 189 197 197 200 205 198 188 197 209 212 216 227 222 217 223 217 219 231 225 229 240 233 228 213 206 231 238 189 164 197 202 183 188 200 203 218 225 221 215 210 206 203
244 127 113 117 119 120 114 117 129 130 114 104 110 105 102 103 42 40 65 70 52 33 43 78 94 114 120 133 153 154 165 145 145 173 175 179 183 175 195 201 181 196 202 199 202 203 209 211 199 197 203 199 197 199 202 209 215 218 216 215 217 211 209 225 222 219 234 230 216 211 215 227 239 233 173 173 178 175 182 185 183 203 220 220 215 210 207 205
218 130 123 127 129 126 121 126 136 130 113 108 108 100 99 92 65 60 48 30 39 55 72 100 110 120 126 132 143 150 167 157 159 171 169 179 181 174 197 162 175 225 228 188 191 204 203 205 206 207 208 202 201 200 196 200 208 210 209 208 211 213 208 216 220 220 230 230 221 211 222 229 228 223 218 222 228 228 225 228 230 224 217 216 211 207 207 206
185 139 133 134 135 130 127 134 134 127 118 107 95 78 64 90 78 68 46 38 50 60 69 102 120 123 124 141 156 154 154 152 152 159 167 178 181 173 171 131 168 225 249 205 211 218 202 197 201 204 212 206 201 205 205 200 203 206 208 210 215 221 222 220 220 222 227 227 217 200 210 228 214 213 232 239 235 236 239 238 235 229 222 219 211 204 204 206
170 147 139 140 141 137 139 141 133 130 118 96 72 44 97 96 84 62 48 46 41 38 62 97 112 127 129 131 155 160 153 145 143 150 160 165 168 155 145 136 157 182 240 231 210 209 222 224 190 192 205 201 202 210 211 205 206 204 206 214 220 221 225 236 238 234 234 232 215 204 215 232 215 216 230 236 224 219 226 230 237 230 220 219 216 206 202 204
163 140 139 147 150 148 151 147 140 135 116 89 61 92 90 84 78 60 45 44 37 39 114 127 122 149 145 129 137 159 156 147 145 144 135 134 131 112 105 62 167 168 217 246 220 209 222 212 170 187 205 197 201 210 206 210 210 195 202 214 219 219 225 237 243 236 240 246 220 207 222 234 227 227 235 244 243 230 233 245 247 233 216 216 220 212 205 203
156 139 143 152 157 160 159 152 146 137 112 83 93 107 93 81 85 75 55 51 45 49 236 224 146 128 157 142 134 140 145 146 151 152 139 133 126 113 96 63 127 168 182 202 240 254 238 203 164 173 203 195 197 199 200 212 212 195 209 215 211 214 227 236 235 219 224 247 226 206 221 230 220 225 243 247 244 240 244 249 242 226 212 213 220 214 206 204
154 143 147 155 162 164 159 153 147 128 107 98 113 112 100 86 92 86 66 52 45 36 327 291 146 134 187 158 134 135 144 153 172 174 149 133 129 126 109 83 90 110 150 159 166 247 252 233 179 169 196 194 192 193 198 209 211 212 223 206 196 207 220 220 227 225 213 232 228 202 215 231 223 218 233 227 226 239 247 245 235 222 211 213 221 213 204 204
151 143 155 165 165 164 158 148 132 113 116 124 116 111 102 87 85 85 68 47 40 36 358 3 124 146 152 137 133 142 157 172 186 186 165 136 149 143 122 107 100 75 106 136 165 235 246 262 200 172 174 185 189 197 203 200 202 213 226 208 205 220 224 212 219 232 225 228 230 203 208 229 219 205 214 227 240 251 248 234 218 210 209 213 217 210 202 203
145 140 179 180 167 166 162 143 118 105 126 131 114 115 113 95 69 66 63 56 56 52 40 51 108 131 123 130 136 148 165 170 176 184 184 165 159 167 171 155 140 49 76 91 27 299 254 260 219 168 172 194 191 198 211 205 195 203 213 215 212 217 225 221 220 224 229 237 231 216 217 219 205 204 219 237 251 250 243 235 217 205 208 208 205 206 203 202
148 144 196 189 174 175 157 129 130 128 125 125 118 119 118 102 78 62 57 61 58 47 47 57 89 109 115 140 144 164 166 171 188 189 178 167 153 162 219 211 215 276 326 13 342 319 277 247 242 204 197 203 189 192 211 214 196 197 208 214 214 210 213 222 218 216 225 240 237 236 236 201 197 218 231 240 247 244 240 242 230 213 206 202 197 198 201 204
153 171 205 191 180 178 148 127 158 144 124 138 136 130 120 102 89 62 46 57 44 26 42 55 76 91 97 131 140 164 158 174 209 201 174 159 154 158 208 224 242 256 297 294 271 295 288 241 250 237 209 209 214 208 211 207 196 198 210 215 215 213 211 216 220 214 220 231 239 250 257 209 200 221 233 236 240 242 239 236 228 214 207 202 195 195 200 204
173 200 202 193 186 174 150 147 170 147 142 155 144 134 123 96 76 51 34 51 25 19 50 53 63 86 101 118 113 119 150 165 193 181 163 141 168 214 229 240 265 273 300 305 283 284 280 252 246 230 204 185 181 202 204 203 200 203 216 223 216 217 218 223 235 243 228 223 224 233 245 233 220 224 233 234 236 240 238 227 220 212 207 205 197 193 195 195
196 202 197 198 194 178 163 170 167 151 155 150 132 124 114 78 64 62 38 306 197 119 111 80 72 89 93 113 115 100 162 183 177 173 167 140 184 225 224 240 286 339 277 255 261 261 262 264 240 225 215 193 173 165 170 178 188 196 210 228 222 223 232 236 243 261 247 226 218 222 228 219 216 226 237 235 230 236 234 221 213 212 208 207 202 193 188 189
203 206 204 206 198 189 192 191 167 153 159 151 138 132 107 33 352 17 86 190 185 163 160 200 138 99 74 83 93 71 101 163 186 186 169 136 168 218 210 212 257 349 277 252 251 253 253 251 231 226 229 216 199 175 157 160 176 182 184 227 225 226 229 231 233 236 239 232 221 227 233 210 207 222 232 232 225 228 231 221 210 210 210 206 201 196 191 188
199 200 205 208 204 201 203 194 172 157 166 165 164 160 136 85 331 334 87 169 209 195 181 214 202 136 109 102 89 71 70 99 157 170 170 151 144 240 247 260 276 277 276 275 269 248 248 244 232 231 232 219 201 150 113 119 146 137 93 120 241 245 228 224 229 232 234 233 227 229 233 246 251 236 237 241 232 226 230 226 209 203 207 205 200 200 196 191
195 196 195 195 200 202 201 192 178 175 181 181 194 214 199 198 284 329 336 285 240 224 213 221 201 176 187 167 126 85 79 85 119 145 168 178 180 269 282 336 322 299 299 318 310 257 253 251 240 233 221 201 188 170 135 96 81 69 42 31 17 322 240 220 227 236 236 233 231 227 225 236 256 255 248 253 245 231 228 227 210 196 201 204 204 204 199 198
199 206 202 193 190 188 193 194 186 184 187 191 217 228 208 207 232 299 307 312 269 229 224 247 225 205 207 202 201 199 121 112 137 155 165 177 205 283 299 324 329 329 328 316 301 262 251 252 239 228 215 199 196 199 197 211 357 31 25 21 19 2 332 231 235 243 232 227 237 241 226 229 240 247 247 254 253 237 225 224 215 198 200 202 201 200 198 199
203 210 209 205 202 196 196 197 188 181 187 197 216 212 194 204 235 277 288 302 287 230 207 203 225 212 208 210 207 202 188 166 160 190 208 229 252 271 291 304 330 345 343 316 294 267 244 240 232 226 222 214 212 220 226 235 256 285 330 345 359 3 354 334 264 242 226 222 234 247 238 219 217 237 247 253 259 251 232 224 215 199 197 198 195 197 200 202
207 210 211 211 214 213 207 199 185 181 197 202 205 208 199 191 223 287 297 263 210 211 186 167 189 194 188 194 192 194 207 202 190 216 227 235 262 263 269 287 313 339 345 333 301 269 246 242 238 233 233 226 224 236 240 239 250 265 282 300 316 341 347 350 313 245 226 222 229 227 217 200 206 228 242 247 257 261 245 231 220 204 196 194 193 196 200 203
211 214 212 209 215 218 215 209 198 191 198 199 200 210 200 188 200 298 324 277 147 157 162 162 181 189 177 167 166 191 214 215 215 227 229 227 242 248 247 271 298 335 342 333 315 276 255 252 237 231 237 229 218 235 248 245 255 262 265 273 282 318 345 351 340 277 226 217 224 220 203 201 216 226 232 238 247 251 244 235 228 217 204 195 192 194 197 201
215 216 215 212 215 217 215 214 210 204 204 205 207 208 196 194 197 72 328 299 177 172 186 194 196 202 209 203 207 227 236 232 229 234 230 228 242 249 252 276 300 335 341 335 330 299 257 251 239 231 240 234 215 221 238 236 249 256 248 239 242 318 349 357 352 327 252 214 212 210 203 210 225 232 231 229 234 237 230 220 220 224 218 203 195 197 201 206
Height
3151 3150 3150 3149 3149 3148 3148 3148 3148 3148 3148 3148 3147 3147 3147 3147 3147 3147 3147 3147 3148 3148 3149 3150 3151 3151 3152 3152 3153 3154 3155 3155 3156 3158 3158 3158 3158 3159 3161 3163 3165 3167 3169 3170 3172 3173 3175 3176 3176 3177 3177 3177 3178 3178 3178 3178 3177 3177 3177 3177 3176 3175 3174 3173 3172 3172 3173 3176 3178 3180 3182 3184 3185 3187 3188 3190 3191 3193 3194 3195 3197 3198 3199 3200 3202 3204 3205 3206
3150 3150 3149 3149 3148 3148 3147 3147 3147 3147 3147 3147 3147 3147 3147 3146 3146 3146 3146 3146 3146 3147 3148 3148 3149 3150 3151 3151 3152 3153 3153 3154 3155 3156 3157 3157 3158 3159 3161 3163 3164 3166 3168 3170 3172 3173 3175 3176 3176 3177 3177 3178 3178 3179 3179 3178 3177 3177 3177 3177 3176 3175 3173 3171 3170 3170 3172 3175 3178 3181 3183 3185 3186 3187 3189 3190 3191 3193 3195 3196 3197 3198 3199 3200 3203 3205 3206 3208
3150 3149 3149 3148 3148 3147 3147 3146 3146 3146 3145 3145 3146 3146 3146 3146 3146 3145 3145 3145 3145 3146 3146 3147 3148 3149 3150 3150 3151 3152 3153 3153 3154 3155 3155 3156 3158 3159 3161 3162 3163 3165 3167 3169 3171 3172 3174 3175 3176 3177 3177 3178 3179 3179 3179 3179 3178 3177 3177 3177 3177 3175 3173 3170 3168 3169 3172 3175 3178 3181 3183 3185 3187 3189 3190 3191 3192 3194 3196 3197 3197 3198 3199 3200 3203 3205 3207 3208
3150 3150 3149 3148 3147 3147 3146 3146 3145 3145 3144 3144 3144 3144 3144 3145 3145 3145 3144 3144 3144 3145 3145 3146 3146 3147 3148 3149 3150 3151 3152 3153 3153 3153 3154 3155 3157 3158 3160 3162 3162 3164 3166 3168 3170 3171 3173 3174 3175 3176 3177 3178 3179 3179 3180 3179 3179 3178 3178 3178 3177 3175 3173 3171 3169 3170 3173 3177 3180 3182 3184 3186 3188 3190 3191 3192 3194 3195 3196 3198 3199 3200 3201 3201 3203 3206 3208 3209
3150 3149 3149 3148 3147 3147 3146 3145 3145 3144 3143 3143 3143 3143 3143 3143 3143 3143 3143 3143 3143 3143 3144 3144 3145 3146 3147 3148 3149 3150 3152 3153 3151 3152 3153 3154 3156 3158 3159 3161 3161 3163 3165 3167 3169 3170 3172 3174 3175 3176 3177 3178 3179 3180 3180 3180 3179 3179 3179 3179 3177 3176 3175 3173 3173 3174 3176 3179 3181 3184 3185 3187 3188 3190 3192 3193 3195 3196 3197 3198 3199 3200 3202 3203 3204 3207 3209 3210
3149 3149 3149 3148 3147 3147 3146 3145 3144 3143 3143 3142 3142 3142 3142 3142 3142 3142 3142 3142 3142 3142 3143 3143 3144 3144 3145 3147 3148 3149 3151 3151 3150 3151 3152 3153 3155 3157 3159 3160 3160 3162 3164 3166 3168 3169 3171 3173 3174 3176 3177 3178 3179 3180 3180 3180 3179 3179 3180 3180 3178 3177 3176 3176 3176 3177 3179 3181 3183 3185 3186 3188 3189 3191 3193 3194 3195 3196 3197 3198 3199 3201 3203 3205 3206 3208 3210 3211
3149 3148 3148 3147 3147 3146 3146 3145 3144 3143 3142 3142 3141 3141 3141 3141 3141 3141 3141 3141 3141 3141 3142 3142 3143 3143 3144 3145 3147 3148 3149 3149 3149 3150 3151 3152 3154 3156 3157 3158 3159 3161 3163 3165 3167 3169 3171 3173 3174 3175 3177 3178 3179 3180 3180 3180 3180 3180 3180 3180 3179 3178 3178 3178 3179 3179 3181 3183 3184 3186 3187 3188 3190 3191 3193 3194 3195 3196 3197 3199 3200 3201 3203 3205 3207 3209 3210 3212
3148 3148 3147 3147 3146 3146 3145 3144 3144 3143 3142 3141 3141 3140 3140 3140 3140 3140 3140 3140 3140 3140 3141 3141 3142 3142 3143 3144 3145 3147 3147 3148 3149 3150 3150 3151 3153 3155 3156 3157 3159 3161 3162 3164 3166 3168 3171 3172 3174 3176 3178 3178 3179 3180 3180 3180 3181 3181 3181 3180 3179 3179 3179 3180 3181 3181 3182 3183 3185 3186 3187 3189 3190 3192 3193 3194 3195 3196 3198 3199 3201 3202 3204 3206 3208 3209 3211 3212
3148 3147 3147 3146 3146 3145 3144 3144 3143 3142 3142 3141 3140 3140 3139 3139 3139 3139 3139 3139 3139 3139 3139 3140 3140 3141 3142 3143 3145 3146 3146 3146 3148 3148 3149 3150 3152 3153 3155 3156 3158 3160 3162 3163 3165 3168 3170 3172 3174 3176 3178 3178 3179 3180 3180 3181 3182 3181 3181 3180 3180 3180 3180 3181 3182 3182 3183 3184 3185 3186 3188 3189 3191 3192 3193 3194 3196 3197 3198 3200 3201 3203 3204 3206 3208 3210 3211 3212
3147 3146 3146 3146 3145 3144 3144 3143 3143 3142 3141 3141 3140 3139 3139 3138 3138 3138 3138 3138 3138 3138 3138 3139 3139 3140 3141 3142 3144 3145 3144 3145 3146 3147 3148 3149 3151 3152 3154 3155 3157 3159 3161 3163 3164 3167 3169 3171 3173 3175 3177 3177 3178 3179 3180 3181 3181 3181 3181 3180 3180 3181 3181 3181 3182 3183 3184 3184 3185 3187 3188 3190 3191 3192 3194 3195 3196 3198 3199 3200 3202 3203 3205 3207 3208 3210 3211 3213
3147 3146 3146 3145 3145 3144 3144 3143 3142 3142 3141 3140 3139 3139 3138 3138 3138 3137 3137 3137 3137 3137 3137 3137 3138 3138 3139 3141 3142 3143 3143 3144 3145 3146 3147 3148 3150 3151 3153 3154 3156 3158 3160 3162 3164 3166 3168 3170 3172 3175 3177 3177 3178 3179 3180 3180 3180 3180 3180 3180 3180 3181 3181 3182 3183 3183 3184 3184 3185 3187 3189 3190 3191 3193 3194 3195 3197 3198 3200 3201 3202 3204 3206 3208 3209 3210 3211 3213
3146 3146 3145 3145 3144 3144 3143 3143 3142 3141 3141 3140 3139 3138 3138 3137 3137 3137 3137 3136 3136 3136 3136 3136 3137 3137 3138 3139 3140 3141 3142 3143 3143 3145 3146 3147 3149 3150 3152 3153 3155 3157 3159 3161 3163 3165 3167 3169 3171 3174 3176 3177 3178 3180 3180 3179 3179 3180 3180 3181 3181 3181 3182 3182 3183 3183 3184 3185 3185 3187 3189 3191 3192 3193 3193 3195 3197 3199 3200 3201 3203 3204 3206 3208 3209 3210 3211 3213
3146 3145 3145 3144 3144 3143 3143 3142 3142 3141 3140 3139 3138 3138 3137 3137 3137 3136 3136 3136 3136 3136 3136 3136 3136 3136 3137 3138 3139 3140 3141 3142 3143 3144 3145 3146 3148 3149 3151 3152 3154 3155 3157 3159 3161 3163 3165 3168 3171 3173 3174 3176 3179 3179 3179 3179 3179 3180 3181 3181 3181 3181 3182 3182 3182 3183 3184 3185 3185 3187 3189 3191 3192 3193 3193 3195 3197 3199 3200 3201 3203 3205 3206 3208 3209 3211 3212 3213
3145 3145 3144 3144 3143 3143 3142 3142 3141 3140 3140 3139 3138 3138 3137 3137 3136 3136 3136 3136 3135 3135 3135 3135 3135 3135 3136 3137 3138 3139 3140 3141 3142 3143 3144 3146 3147 3149 3150 3152 3153 3155 3156 3157 3159 3161 3164 3167 3170 3171 3173 3175 3177 3178 3179 3180 3180 3181 3181 3181 3182 3181 3181 3182 3182 3182 3183 3184 3185 3186 3189 3191 3192 3192 3193 3195 3197 3199 3201 3202 3203 3205 3206 3208 3210 3211 3212 3214
3145 3144 3144 3143 3143 3142 3142 3141 3141 3140 3139 3138 3138 3137 3137 3136 3136 3136 3136 3136 3135 3135 3134 3134 3134 3135 3136 3137 3137 3138 3139 3141 3142 3143 3144 3145 3147 3148 3150 3152 3153 3155 3156 3157 3159 3161 3163 3167 3169 3172 3174 3174 3176 3178 3180 3180 3180 3180 3180 3180 3181 3180 3180 3181 3181 3181 3182 3183 3183 3185 3187 3189 3190 3192 3193 3195 3197 3199 3201 3202 3204 3205 3206 3208 3210 3211 3212 3214
3144 3144 3143 3143 3142 3142 3141 3141 3140 3140 3139 3138 3137 3137 3136 3136 3135 3135 3135 3135 3135 3134 3134 3134 3134 3134 3135 3136 3136 3137 3139 3140 3141 3142 3144 3145 3146 3148 3149 3151 3153 3155 3157 3158 3160 3161 3164 3167 3169 3171 3173 3175 3176 3178 3180 3180 3180 3179 3179 3179 3180 3179 3178 3179 3180 3181 3181 3182 3182 3183 3186 3188 3189 3191 3193 3194 3196 3198 3200 3202 3204 3205 3206 3208 3209 3211 3212 3214
3144 3143 3143 3143 3142 3141 3141 3140 3140 3139 3139 3138 3137 3136 3136 3135 3135 3135 3135 3135 3135 3134 3134 3134 3134 3135 3135 3136 3136 3137 3138 3139 3141 3142 3143 3144 3146 3147 3149 3151 3152 3155 3157 3159 3160 3162 3164 3166 3168 3170 3172 3174 3177 3178 3179 3178 3178 3179 3179 3179 3179 3179 3178 3178 3179 3180 3180 3181 3182 3183 3185 3187 3188 3190 3192 3194 3196 3197 3199 3201 3203 3205 3206 3207 3209 3210 3212 3213
3143 3143 3143 3142 3142 3141 3141 3140 3140 3139 3138 3137 3137 3136 3135 3135 3135 3135 3135 3135 3135 3134 3134 3134 3134 3136 3136 3136 3136 3137 3138 3139 3141 3142 3143 3144 3146 3147 3149 3151 3153 3155 3156 3159 3160 3162 3164 3166 3169 3171 3172 3174 3175 3177 3176 3175 3176 3177 3178 3179 3179 3179 3179 3178 3179 3180 3180 3181 3182 3183 3184 3186 3187 3189 3192 3193 3195 3197 3199 3200 3202 3204 3206 3207 3208 3210 3211 3213
3143 3143 3142 3142 3141 3141 3140 3140 3139 3139 3138 3137 3137 3136 3135 3135 3135 3135 3135 3135 3135 3135 3135 3135 3135 3136 3136 3136 3136 3137 3138 3140 3141 3143 3144 3144 3146 3148 3150 3151 3153 3155 3157 3159 3160 3161 3164 3166 3168 3170 3171 3172 3173 3175 3175 3174 3175 3175 3177 3178 3179 3179 3179 3179 3180 3180 3180 3181 3182 3183 3184 3186 3187 3189 3191 3193 3194 3196 3198 3199 3201 3203 3205 3206 3208 3209 3211 3213
3143 3142 3142 3142 3141 3140 3140 3140 3139 3139 3138 3137 3137 3136 3136 3136 3136 3136 3135 3135 3135 3135 3135 3135 3135 3136 3136 3137 3137 3138 3139 3141 3142 3143 3144 3145 3146 3148 3150 3152 3153 3155 3157 3159 3161 3161 3164 3166 3167 3168 3169 3171 3173 3174 3174 3174 3175 3176 3177 3178 3178 3179 3180 3180 3180 3180 3181 3182 3183 3183 3184 3185 3187 3188 3190 3192 3193 3195 3197 3198 3200 3202 3203 3205 3207 3209 3210 3212
3142 3142 3142 3141 3141 3140 3140 3140 3139 3139 3138 3137 3137 3137 3136 3136 3137 3137 3136 3136 3136 3136 3136 3136 3136 3136 3137 3137 3137 3138 3140 3142 3142 3143 3144 3145 3147 3149 3150 3152 3154 3156 3157 3159 3160 3161 3164 3166 3166 3168 3170 3171 3172 3172 3172 3174 3176 3176 3177 3177 3178 3179 3180 3181 3181 3180 3181 3182 3183 3183 3184 3185 3186 3187 3188 3190 3192 3193 3195 3197 3199 3201 3202 3204 3206 3208 3210 3212
3142 3142 3142 3141 3141 3140 3140 3139 3139 3139 3138 3138 3137 3137 3137 3137 3137 3137 3137 3137 3137 3137 3137 3137 3137 3137 3138 3138 3138 3139 3141 3142 3143 3143 3144 3145 3147 3150 3151 3151 3154 3156 3157 3158 3160 3161 3163 3165 3166 3168 3169 3170 3170 3171 3172 3174 3176 3177 3177 3177 3176 3177 3179 3181 3180 3180 3180 3182 3184 3183 3184 3185 3185 3186 3187 3188 3191 3193 3194 3196 3198 3200 3201 3203 3205 3207 3209 3211
3141 3141 3141 3141 3141 3140 3140 3139 3139 3139 3138 3138 3138 3137 3138 3137 3137 3137 3137 3138 3139 3139 3138 3139 3139 3139 3139 3139 3139 3140 3142 3144 3144 3144 3145 3146 3148 3149 3150 3152 3154 3156 3156 3157 3160 3162 3163 3164 3166 3167 3167 3168 3170 3171 3172 3174 3176 3177 3177 3176 3175 3176 3179 3180 3180 3180 3181 3182 3183 3182 3184 3185 3183 3184 3186 3187 3189 3191 3193 3194 3196 3198 3200 3202 3204 3206 3208 3209
3141 3141 3141 3141 3140 3140 3140 3139 3139 3139 3139 3138 3138 3138 3138 3138 3138 3138 3138 3139 3140 3140 3140 3140 3140 3140 3140 3140 3140 3141 3143 3145 3145 3145 3145 3147 3148 3149 3151 3152 3154 3155 3156 3157 3160 3162 3163 3163 3164 3164 3165 3168 3171 3172 3173 3175 3176 3177 3177 3176 3175 3177 3178 3179 3180 3180 3181 3182 3182 3182 3184 3184 3182 3182 3184 3186 3187 3189 3190 3192 3194 3196 3198 3200 3203 3205 3206 3208
3141 3141 3141 3141 3140 3140 3140 3140 3139 3139 3139 3139 3139 3139 3139 3138 3138 3139 3138 3139 3142 3142 3142 3142 3141 3141 3141 3142 3142 3143 3144 3145 3145 3145 3146 3147 3149 3150 3151 3152 3153 3155 3156 3157 3159 3162 3162 3160 3161 3164 3166 3169 3171 3172 3173 3174 3175 3176 3176 3176 3177 3178 3178 3178 3179 3180 3181 3181 3181 3182 3182 3182 3181 3182 3183 3184 3185 3187 3188 3190 3192 3194 3196 3198 3200 3203 3205 3207
3141 3141 3141 3141 3140 3140 3140 3140 3140 3140 3140 3139 3140 3139 3139 3139 3139 3139 3139 3140 3142 3143 3143 3143 3143 3143 3143 3143 3143 3143 3144 3145 3145 3145 3146 3147 3149 3150 3151 3151 3153 3155 3155 3156 3159 3161 3160 3159 3161 3164 3166 3168 3170 3172 3173 3173 3175 3175 3174 3176 3177 3178 3178 3178 3178 3180 3181 3180 3179 3180 3181 3179 3180 3182 3182 3182 3183 3185 3186 3188 3190 3191 3193 3196 3198 3201 3203 3205
3141 3141 3141 3141 3140 3140 3140 3140 3140 3140 3140 3140 3140 3140 3140 3140 3140 3140 3139 3139 3141 3143 3144 3144 3144 3144 3144 3144 3144 3144 3145 3145 3145 3146 3146 3148 3149 3149 3151 3152 3153 3153 3154 3157 3158 3158 3158 3159 3161 3164 3166 3168 3169 3171 3172 3173 3174 3174 3173 3175 3177 3178 3179 3178 3179 3179 3180 3180 3179 3179 3180 3179 3178 3179 3180 3181 3182 3183 3183 3185 3187 3189 3191 3194 3196 3198 3201 3203
3141 3141 3141 3141 3140 3140 3140 3140 3141 3141 3141 3141 3141 3141 3141 3141 3141 3141 3139 3139 3143 3144 3144 3144 3144 3144 3144 3144 3145 3145 3145 3145 3146 3146 3147 3148 3149 3150 3151 3152 3153 3153 3153 3156 3157 3156 3158 3160 3161 3163 3165 3167 3168 3170 3171 3172 3173 3173 3172 3175 3177 3178 3178 3179 3179 3180 3180 3180 3178 3177 3179 3177 3176 3177 3178 3178 3180 3180 3181 3182 3184 3186 3189 3191 3194 3196 3199 3201
3141 3141 3141 3141 3141 3141 3141 3141 3141 3141 3141 3141 3141 3141 3142 3141 3141 3141 3139 3141 3144 3145 3144 3145 3144 3144 3144 3145 3146 3146 3146 3146 3146 3147 3147 3148 3149 3150 3151 3152 3152 3153 3153 3155 3156 3156 3157 3159 3161 3163 3165 3166 3167 3169 3170 3171 3173 3173 3172 3175 3176 3177 3178 3178 3179 3179 3180 3179 3175 3175 3177 3174 3173 3176 3176 3176 3177 3177 3178 3180 3182 3184 3187 3189 3191 3194 3196 3199
3141 3141 3141 3141 3141 3141 3141 3141 3141 3141 3142 3142 3141 3142 3142 3142 3142 3140 3139 3143 3145 3145 3145 3145 3145 3145 3145 3146 3147 3146 3147 3147 3147 3147 3148 3149 3149 3150 3151 3151 3152 3154 3154 3154 3155 3155 3156 3157 3159 3161 3164 3165 3166 3167 3168 3170 3172 3172 3173 3175 3177 3177 3178 3178 3178 3179 3179 3176 3172 3172 3175 3174 3171 3172 3173 3174 3175 3176 3177 3179 3181 3182 3184 3186 3189 3191 3194 3197
3141 3142 3141 3141 3141 3142 3142 3142 3142 3142 3142 3142 3142 3142 3142 3143 3142 3140 3141 3145 3145 3145 3146 3145 3145 3145 3145 3146 3146 3147 3148 3148 3147 3148 3148 3149 3150 3150 3151 3151 3152 3153 3154 3154 3155 3156 3156 3157 3159 3160 3162 3163 3165 3166 3167 3168 3170 3171 3173 3175 3176 3176 3177 3177 3177 3179 3177 3172 3170 3171 3174 3174 3171 3169 3171 3173 3174 3175 3177 3178 3179 3181 3182 3184 3186 3188 3191 3194
3142 3142 3142 3142 3142 3142 3142 3142 3142 3142 3143 3143 3143 3143 3143 3143 3143 3143 3144 3146 3145 3146 3146 3146 3145 3145 3146 3146 3146 3147 3148 3148 3148 3148 3149 3149 3150 3150 3150 3151 3151 3151 3151 3152 3153 3155 3156 3157 3159 3159 3160 3162 3164 3165 3166 3167 3169 3170 3173 3174 3174 3172 3175 3175 3174 3176 3174 3170 3170 3172 3172 3173 3171 3170 3171 3172 3173 3175 3176 3177 3178 3179 3180 3181 3183 3185 3188 3192
3142 3142 3142 3142 3142 3142 3142 3143 3143 3143 3143 3143 3144 3144 3144 3143 3145 3146 3146 3146 3145 3146 3146 3146 3146 3146 3146 3147 3147 3147 3147 3147 3148 3148 3149 3149 3150 3150 3150 3150 3151 3150 3149 3150 3152 3153 3154 3156 3157 3159 3159 3160 3162 3164 3165 3166 3167 3169 3170 3172 3171 3169 3170 3172 3170 3171 3170 3168 3169 3172 3172 3171 3170 3171 3171 3172 3173 3174 3175 3176 3177 3178 3179 3179 3181 3184 3187 3190
3142 3142 3142 3142 3142 3143 3143 3143 3143 3144 3144 3144 3144 3145 3145 3145 3146 3147 3147 3147 3147 3147 3146 3146 3146 3146 3147 3147 3147 3147 3147 3147 3148 3148 3149 3149 3149 3150 3150 3151 3152 3151 3150 3150 3151 3150 3150 3151 3153 3156 3157 3158 3160 3162 3163 3164 3166 3167 3169 3170 3170 3167 3167 3167 3165 3165 3166 3167 3168 3171 3171 3169 3168 3169 3170 3171 3172 3173 3174 3175 3175 3176 3177 3178 3179 3182 3184 3187
3142 3142 3142 3143 3143 3143 3143 3144 3144 3144 3145 3145 3145 3146 3146 3147 3148 3148 3148 3148 3147 3147 3147 3147 3147 3147 3147 3147 3147 3147 3147 3147 3148 3148 3149 3149 3150 3150 3151 3152 3152 3152 3152 3151 3151 3151 3151 3149 3150 3154 3156 3156 3159 3161 3162 3164 3164 3165 3168 3168 3167 3167 3167 3165 3163 3164 3165 3165 3167 3169 3169 3168 3167 3168 3169 3170 3171 3172 3173 3173 3174 3175 3175 3177 3178 3179 3182 3184
3142 3142 3143 3143 3143 3144 3144 3144 3144 3145 3145 3146 3146 3147 3147 3148 3148 3148 3148 3148 3147 3148 3148 3147 3147 3146 3146 3147 3147 3147 3147 3147 3148 3148 3149 3150 3151 3151 3151 3152 3151 3151 3152 3151 3151 3151 3150 3149 3150 3153 3154 3156 3158 3159 3161 3162 3162 3163 3165 3165 3165 3167 3168 3166 3164 3165 3166 3164 3163 3165 3167 3167 3168 3168 3168 3169 3170 3170 3172 3172 3173 3173 3174 3175 3176 3177 3179 3182
3142 3143 3143 3143 3144 3144 3144 3144 3145 3145 3146 3147 3148 3148 3148 3149 3148 3148 3148 3147 3147 3147 3147 3146 3146 3146 3146 3146 3147 3148 3148 3148 3148 3149 3149 3150 3150 3151 3151 3151 3151 3151 3151 3150 3151 3151 3149 3148 3149 3152 3153 3154 3156 3158 3160 3161 3161 3162 3163 3163 3165 3167 3167 3166 3164 3164 3166 3163 3159 3162 3165 3165 3166 3167 3167 3168 3169 3169 3170 3171 3171 3172 3173 3173 3174 3175 3177 3180
3142 3143 3144 3144 3144 3144 3144 3145 3145 3146 3147 3148 3148 3148 3149 3149 3149 3148 3148 3147 3147 3148 3147 3146 3146 3147 3147 3146 3147 3148 3148 3149 3149 3149 3149 3150 3150 3151 3152 3152 3151 3151 3151 3151 3151 3152 3150 3148 3147 3151 3152 3152 3154 3156 3158 3159 3160 3161 3161 3161 3163 3164 3165 3166 3163 3160 3161 3161 3157 3159 3163 3163 3163 3166 3167 3167 3168 3168 3169 3170 3170 3171 3172 3172 3173 3173 3175 3177
3143 3144 3145 3145 3144 3145 3145 3145 3146 3147 3148 3149 3149 3149 3149 3149 3149 3148 3148 3148 3147 3148 3148 3147 3147 3147 3147 3147 3148 3148 3148 3149 3149 3150 3150 3150 3151 3151 3151 3152 3152 3151 3151 3151 3152 3152 3151 3149 3147 3149 3151 3152 3153 3154 3155 3156 3159 3160 3160 3161 3162 3162 3161 3162 3162 3158 3157 3156 3155 3156 3160 3161 3161 3164 3165 3165 3166 3167 3168 3168 3169 3170 3171 3172 3172 3172 3173 3175
3143 3145 3146 3145 3145 3145 3145 3146 3147 3148 3149 3149 3149 3149 3149 3150 3150 3149 3148 3148 3148 3148 3148 3148 3147 3148 3148 3148 3148 3148 3149 3149 3149 3150 3150 3150 3151 3151 3151 3151 3152 3152 3151 3151 3152 3151 3151 3150 3148 3148 3150 3150 3150 3151 3152 3152 3155 3158 3159 3160 3160 3160 3160 3160 3159 3158 3156 3154 3152 3152 3156 3159 3160 3161 3163 3164 3165 3166 3167 3167 3168 3169 3170 3171 3172 3172 3173 3175
3144 3146 3146 3145 3145 3145 3146 3147 3148 3149 3149 3149 3149 3149 3149 3149 3150 3149 3149 3148 3148 3148 3148 3148 3148 3148 3148 3148 3149 3149 3149 3150 3150 3150 3150 3150 3151 3151 3151 3151 3151 3151 3151 3152 3152 3151 3151 3150 3149 3148 3148 3147 3147 3149 3150 3150 3152 3154 3156 3157 3157 3158 3159 3159 3156 3156 3157 3156 3153 3151 3153 3156 3158 3159 3161 3163 3164 3164 3165 3166 3167 3168 3169 3170 3171 3172 3173 3174
3145 3146 3146 3145 3145 3146 3146 3148 3148 3149 3149 3149 3149 3149 3149 3149 3150 3150 3149 3149 3149 3149 3148 3148 3148 3149 3149 3149 3149 3149 3149 3150 3150 3150 3150 3150 3151 3151 3150 3151 3151 3151 3151 3152 3152 3151 3150 3150 3150 3148 3147 3147 3147 3148 3149 3150 3151 3153 3154 3154 3155 3156 3157 3157 3154 3154 3156 3156 3155 3155 3154 3155 3158 3159 3160 3161 3163 3163 3164 3165 3166 3167 3168 3170 3171 3172 3173 3174
3145 3146 3145 3145 3145 3146 3147 3148 3148 3149 3149 3149 3149 3149 3149 3149 3150 3150 3150 3149 3149 3149 3149 3149 3149 3149 3149 3149 3149 3149 3149 3150 3150 3150 3151 3151 3150 3150 3150 3150 3150 3151 3151 3152 3151 3150 3150 3150 3150 3149 3148 3149 3148 3148 3149 3150 3151 3153 3153 3153 3154 3154 3154 3154 3154 3154 3154 3153 3155 3157 3157 3156 3158 3158 3158 3160 3162 3162 3163 3164 3165 3166 3168 3169 3170 3172 3172 3174
3144 3144 3144 3145 3145 3146 3147 3148 3149 3149 3149 3148 3149 3149 3149 3149 3149 3150 3150 3149 3149 3149 3149 3149 3149 3149 3149 3149 3149 3149 3149 3149 3150 3150 3150 3151 3150 3150 3150 3150 3150 3151 3151 3151 3151 3150 3150 3150 3150 3149 3149 3148 3148 3147 3148 3150 3151 3152 3153 3152 3152 3153 3154 3154 3154 3155 3153 3151 3153 3154 3153 3155 3157 3157 3158 3159 3160 3161 3162 3163 3164 3166 3167 3168 3170 3171 3172 3173
3143 3144 3144 3145 3145 3146 3147 3147 3148 3149 3149 3149 3150 3150 3149 3149 3149 3149 3149 3149 3148 3149 3149 3149 3149 3149 3149 3149 3149 3149 3149 3149 3150 3150 3150 3151 3150 3150 3150 3150 3150 3150 3150 3149 3150 3150 3150 3150 3150 3149 3148 3147 3148 3147 3148 3150 3151 3151 3151 3151 3151 3152 3153 3154 3154 3155 3153 3152 3153 3153 3152 3153 3156 3157 3157 3158 3159 3160 3161 3162 3163 3164 3166 3167 3169 3170 3171 3172
3143 3145 3145 3145 3145 3146 3146 3146 3147 3148 3149 3149 3149 3149 3150 3150 3149 3148 3148 3149 3148 3148 3149 3149 3149 3149 3150 3150 3150 3150 3149 3149 3149 3150 3150 3151 3151 3150 3149 3150 3150 3149 3149 3149 3149 3149 3149 3149 3150 3150 3149 3149 3150 3150 3150 3151 3151 3151 3151 3151 3152 3152 3152 3153 3154 3153 3152 3152 3153 3153 3153 3154 3155 3156 3157 3157 3158 3159 3159 3160 3162 3163 3164 3166 3168 3169 3170 3171
3142 3144 3144 3145 3145 3146 3146 3146 3147 3148 3148 3149 3149 3149 3149 3149 3149 3148 3148 3148 3148 3148 3148 3148 3149 3149 3150 3150 3150 3150 3150 3150 3150 3150 3150 3150 3150 3150 3149 3150 3150 3149 3149 3149 3148 3148 3149 3149 3148 3149 3149 3150 3151 3152 3151 3151 3150 3150 3150 3150 3151 3152 3151 3152 3152 3151 3151 3152 3152 3152 3154 3155 3156 3157 3157 3157 3157 3158 3158 3159 3161 3162 3163 3165 3166 3168 3169 3170
3141 3142 3142 3143 3144 3145 3146 3146 3146 3147 3148 3148 3148 3148 3149 3149 3149 3149 3148 3148 3148 3147 3148 3149 3148 3149 3149 3149 3150 3150 3150 3150 3150 3150 3150 3150 3150 3150 3150 3150 3150 3149 3149 3149 3148 3148 3148 3148 3148 3148 3149 3150 3150 3150 3151 3151 3150 3150 3150 3150 3151 3151 3151 3151 3151 3150 3151 3152 3152 3152 3153 3155 3156 3156 3156 3156 3156 3157 3157 3158 3160 3162 3162 3164 3165 3167 3168 3169
3139 3140 3141 3142 3143 3144 3144 3145 3145 3146 3147 3147 3147 3148 3148 3149 3148 3148 3147 3148 3147 3147 3148 3148 3148 3148 3148 3148 3149 3149 3149 3149 3149 3149 3150 3150 3150 3150 3150 3150 3150 3149 3149 3149 3148 3147 3147 3148 3148 3148 3148 3148 3149 3149 3149 3150 3150 3149 3150 3150 3150 3151 3150 3150 3150 3149 3150 3151 3152 3152 3153 3154 3155 3155 3155 3155 3156 3156 3157 3157 3159 3160 3161 3163 3164 3165 3166 3167
3138 3139 3140 3141 3142 3142 3143 3144 3145 3146 3146 3146 3147 3147 3147 3148 3148 3147 3146 3147 3147 3147 3147 3148 3147 3147 3148 3148 3148 3149 3148 3148 3149 3149 3149 3150 3150 3150 3150 3150 3149 3149 3149 3148 3147 3147 3147 3147 3147 3147 3147 3147 3148 3148 3148 3148 3149 3149 3149 3149 3150 3150 3150 3149 3149 3148 3149 3151 3151 3152 3153 3154 3154 3153 3154 3154 3155 3155 3156 3157 3158 3159 3161 3162 3163 3164 3165 3166
3136 3137 3138 3140 3141 3141 3142 3143 3144 3145 3146 3146 3146 3146 3146 3147 3147 3146 3145 3145 3146 3146 3147 3147 3147 3147 3147 3148 3148 3148 3147 3147 3148 3148 3148 3149 3149 3149 3149 3149 3148 3149 3149 3148 3147 3146 3146 3146 3146 3147 3146 3145 3146 3148 3147 3147 3148 3148 3149 3149 3149 3150 3150 3149 3148 3147 3148 3149 3150 3151 3152 3152 3152 3152 3153 3153 3154 3155 3155 3156 3157 3158 3159 3161 3162 3163 3164 3165
3135 3136 3137 3139 3140 3140 3141 3142 3143 3144 3145 3145 3145 3145 3146 3146 3146 3146 3146 3145 3144 3145 3145 3146 3146 3147 3147 3147 3147 3146 3146 3146 3147 3147 3147 3148 3148 3148 3148 3147 3147 3148 3148 3147 3147 3146 3146 3146 3146 3146 3145 3144 3146 3147 3147 3147 3147 3147 3147 3148 3149 3150 3150 3149 3148 3147 3147 3148 3149 3150 3150 3150 3150 3151 3151 3152 3153 3154 3155 3156 3157 3157 3158 3160 3161 3162 3163 3164